DELTA 1 DEB, 10183

Orbit data source: Space-Track

DELTA 1 DEB, 10183 is space debris in LEO originally from a launch on Thu, 14 Jul 1977 UTC launched from the Air Force Eastern Test Range (AFETR). Debris objects in space refer to the collection of defunct objects orbiting the Earth. Examples of debris include non-operational satellites, rocket bodies, and fragments generated from explosions, collisions, or faulty payload assembly.

Loading next visibility...
Identifier
10183, 1977-065M
Orbit
LEO
Country
Flag of USUS
Related business
Manufacturer
Unknown
Mission
Spacecraft
Bus & Motor
Unknown
Mass
Unknown
Launch date (UTC)
1977-07-14 (49 years ago)
Launch vehicle
Unknown
Launch site
Air Force Eastern Test Range (AFETR)
Object type
Payload
Rocket body
Debris
Shape & HBR
Unknown shape, 0.2 m
Radar Cross Section
Medium (>0.1 m² and <1 m²)

Expand to show TLE details & history
Last TLE update: 6 hours ago

TLE from 6 hours ago
0 DELTA 1 DEB
1 10183U 77065M   26263.16397883  .00002337  00000-0  53971-3 0  9995
2 10183  29.2113 329.4953 0459218 155.1074 207.2405 14.03531874423971
Epoch: 2026-09-20T03:56Z
TLE epoch observation values (Epoch: 2026-09-20T03:56:07.770Z)
Latitude
-0.00004°
Longitude
-88.59924°
Altitude
1,179.352 km
Speed
7.115 km/s
True Right ascension
21h 57m 58s
True Declination
0° 00' 00"
Sunlit
Object was in full shadow at epoch
Visualization orbit readout
Latitude
Unknown
Longitude
Unknown
Altitude
Unknown
Speed
Unknown
Apparent Right ascension
Unknown
Apparent Declination
Unknown
Sunlit
N/A
Visualization observer readout
Local Sidereal Time
02:38:01
Azimuth
Unknown
Elevation
Unknown
Doppler factor
Unknown
Orbital elements
Apogee altitude
1,219.068 km
Perigee altitude
551.948 km
Semi-major axis
7,263.645 km
Eccentricity
0.04592
Inclination
29.2113°
RAAN
329.4953°
Arg. of periapsis
155.1074°
True anomaly
204.94961°
Mean anomaly
207.2405°
Eccentric anomaly
206.08364°
Mean motion
3.50599 °/min
Orbital period
102.68 mins
BSTAR
0.00053971
Loading maneuver chart data...
Computing Atmospheric mass density...
Loading historical data...
Loading historical data...
Loading historical data...
Loading historical data...
Loading historical data...
Loading historical data...
Loading historical data...

Documentation

Showing up to 5 results
|